The Dalles, WA

7:31 AM PST on January 21, 2018 (GMT -0800)
Columbia Gorge Regional-The Dalles

Weather History for KDLS - September, 2013

Change the Weather History Date:

Friday, September 6, 2013

  Actual Average Record
Temperature  
Mean Temperature 65 °F -  
Max Temperature 73 °F 83 °F 98 °F (1998)
Min Temperature 57 °F 54 °F 41 °F (1960)
Growing Degree Days 15 (Base 50)    
Moisture  
Dew Point 56 °F    
Average Humidity 76    
Maximum Humidity 93    
Minimum Humidity 53    
Precipitation  
Precipitation 0.30 in - - ()
Sea Level Pressure  
Sea Level Pressure 30.05 in    
Wind  
Wind Speed 6 mph (WNW)    
Max Wind Speed 21 mph    
Max Gust Speed 28 mph    
Visibility 10 miles    
Events Rain    
Averages and records for this station are not official NWS values.
T = Trace of Precipitation, MM = Missing Value Source: NWS Daily Summary

Daily Weather History Graph

Daily Weather History Graph

Search for Another Location

Airport or City:

Trip Planner

Search our weather history database for the weather conditions in past years. The results will help you decide how hot, cold, wet, or windy it might be!

Date:

Astronomy

Sep. 06, 2013 Rise Set
Actual Time 6:32 AM PDT 7:32 PM PDT
Civil Twilight 6:02 AM PDT 8:02 PM PDT
Nautical Twilight 5:25 AM PDT 8:38 PM PDT
Astronomical Twilight 4:47 AM PDT 9:16 PM PDT
Moon 7:56 AM PDT (9/6) 7:51 PM PDT (9/6)
Length of Visible Light 14h 00m
Length of Day
13h 00m
New Moon, 2% of the Moon is Illuminated
Sep 6
New Moon
Sep 12
First Quarter
Sep 19
Full
Sep 26
Last Quarter
Oct 4
New

Hourly Weather History & Observations

Time (PDT) Temp. Dew Point Humidity Pressure Visibility Wind Dir Wind Speed Gust Speed Precip Events Conditions
12:53 AM 61.0 °F 53.1 °F 75% 30.00 in 10.0 mi West 5.8 mph - N/A   Mostly Cloudy
1:53 AM 57.9 °F 54.0 °F 87% 29.99 in 10.0 mi Variable 3.5 mph - N/A   Clear
2:53 AM 57.9 °F 54.0 °F 87% 30.00 in 10.0 mi WSW 5.8 mph - N/A   Overcast
3:53 AM 59.0 °F 54.0 °F 83% 30.00 in 10.0 mi Calm Calm - N/A   Mostly Cloudy
4:53 AM 59.0 °F 55.9 °F 90% 30.01 in 6.0 mi WSW 3.5 mph - 0.04 in Rain Light Rain
5:53 AM 57.9 °F 55.0 °F 90% 30.03 in 10.0 mi ESE 4.6 mph - 0.09 in Rain Light Rain
6:53 AM 59.0 °F 55.9 °F 90% 30.04 in 8.0 mi Calm Calm - 0.07 in Rain Light Rain
7:53 AM 59.0 °F 57.0 °F 93% 30.05 in 8.0 mi WSW 3.5 mph - 0.08 in Rain Light Rain
8:29 AM 60.8 °F 57.2 °F 88% 30.05 in 10.0 mi Calm Calm - 0.02 in Rain Light Rain
8:38 AM 60.8 °F 57.2 °F 88% 30.05 in 10.0 mi Calm Calm - 0.02 in Rain Light Rain
8:51 AM 60.8 °F 57.2 °F 88% 30.05 in 10.0 mi Calm Calm - 0.02 in Rain Light Rain
8:53 AM 60.1 °F 57.0 °F 90% 30.05 in 10.0 mi Calm Calm - 0.02 in   Overcast
9:30 AM 60.8 °F 57.2 °F 88% 30.06 in 10.0 mi Calm Calm - N/A   Overcast
9:53 AM 62.1 °F 57.9 °F 86% 30.06 in 10.0 mi Calm Calm - N/A   Overcast
10:06 AM 62.6 °F 59.0 °F 88% 30.07 in 10.0 mi Calm Calm - N/A   Overcast
10:53 AM 66.0 °F 57.9 °F 75% 30.06 in 10.0 mi Calm Calm - N/A   Scattered Clouds
11:53 AM 66.9 °F 57.9 °F 73% 30.06 in 10.0 mi NNW 10.4 mph - N/A   Mostly Cloudy
12:53 PM 69.1 °F 57.0 °F 65% 30.05 in 10.0 mi NNW 12.7 mph 21.9 mph N/A   Mostly Cloudy
1:53 PM 73.9 °F 57.0 °F 55% 30.04 in 10.0 mi NW 20.7 mph 27.6 mph N/A   Overcast
2:53 PM 70.0 °F 54.0 °F 57% 30.06 in 10.0 mi North 16.1 mph - N/A   Overcast
3:53 PM 72.0 °F 55.0 °F 55% 30.05 in 10.0 mi NNW 18.4 mph 25.3 mph N/A   Scattered Clouds
4:53 PM 73.0 °F 55.0 °F 53% 30.06 in 10.0 mi NNW 16.1 mph 24.2 mph N/A   Scattered Clouds
5:53 PM 69.1 °F 55.0 °F 61% 30.07 in 10.0 mi NW 17.3 mph - N/A   Partly Cloudy
6:53 PM 68.0 °F 54.0 °F 61% 30.08 in 10.0 mi NNW 18.4 mph 25.3 mph N/A   Overcast
7:53 PM 66.9 °F 54.0 °F 63% 30.09 in 10.0 mi NW 12.7 mph - N/A   Mostly Cloudy
8:53 PM 66.0 °F 55.0 °F 68% 30.10 in 10.0 mi NW 8.1 mph - N/A   Overcast
9:53 PM 66.0 °F 55.9 °F 70% 30.10 in 10.0 mi West 9.2 mph - N/A   Mostly Cloudy
10:53 PM 64.0 °F 55.0 °F 73% 30.10 in 10.0 mi NW 5.8 mph - N/A   Clear
11:53 PM 61.0 °F 54.0 °F 78% 30.10 in 10.0 mi SW 4.6 mph - N/A   Clear